Weather History for Pittsburg, KS

Change the Weather History Date:

Friday, August 16, 2013

  Actual Average (KJLN) Record (KJLN)
Temperature  
Mean Temperature 70 °F 80 °F  
Max Temperature 78 °F 92 °F 105 °F (1956)
Min Temperature 61 °F 69 °F 49 °F (1992)
Degree Days  
Heating Degree Days 0 0  
Month to date heating degree days 0  
Since 1 June heating degree days 5  
Since 1 July heating degree days 0  
Cooling Degree Days 4 15  
Month to date cooling degree days 251  
Year to date cooling degree days 1222  
Since 1 June cooling degree days 1042  
Growing Degree Days 20 (Base 50)    
Moisture  
Dew Point 60 °F    
Average Humidity 72    
Maximum Humidity 100    
Minimum Humidity 49    
Precipitation  
Precipitation 0.00 in 0.10 in 1.44 in (1965)
Month to date precipitation 1.62  
Year to date precipitation 29.24  
Sea Level Pressure  
Sea Level Pressure 30.11 in    
Wind  
Wind Speed 5 mph (East)    
Max Wind Speed 9 mph    
Max Gust Speed -    
Visibility 10 miles    
Events      
T = Trace of Precipitation, MM = Missing Value Source: NWS Daily Summary

Daily Weather History Graph

Daily Weather History Graph

Search for Another Location

Airport:

Trip Planner

Search our weather history database for the weather conditions in past years. The results will help you decide how hot, cold, wet, or windy it might be!

Date:

Astronomy

Aug. 16, 2013 Rise Set
Actual Time 6:36 AM CDT 8:09 PM CDT
Civil Twilight 6:08 AM CDT 8:37 PM CDT
Nautical Twilight 5:34 AM CDT 9:10 PM CDT
Astronomical Twilight 4:59 AM CDT 9:45 PM CDT
Moon 4:26 PM CDT (8/16) 1:41 AM CDT (8/16)
Length of Visible Light 14h 28m
Length of Day
13h 33m
Waxing Gibbous, 75% of the Moon is Illuminated
Aug 16
Waxing Gibbous
Aug 20
Full
Aug 28
Last Quarter
Sep 5
New
Sep 12
First Quarter

Hourly Weather History & Observations

Time (CDT) Temp. Dew Point Humidity Pressure Visibility Wind Dir Wind Speed Gust Speed Precip Events Conditions
12:15 AM 67.3 °F 59.2 °F 75% 30.07 in 10.0 mi ESE 5.8 mph - N/A   Clear
12:55 AM 66.0 °F 57.9 °F 75% 30.06 in 10.0 mi ESE 6.9 mph - N/A   Clear
1:15 AM 66.2 °F 57.9 °F 75% 30.06 in 10.0 mi ESE 5.8 mph - N/A   Clear
1:35 AM 66.0 °F 57.9 °F 75% 30.06 in 10.0 mi ESE 5.8 mph - N/A   Clear
1:55 AM 65.8 °F 58.1 °F 76% 30.06 in 10.0 mi SE 3.5 mph - N/A   Clear
2:15 AM 65.8 °F 58.5 °F 77% 30.07 in 10.0 mi SE 3.5 mph - N/A   Clear
2:35 AM 65.8 °F 58.6 °F 78% 30.07 in 10.0 mi ESE 3.5 mph - N/A   Clear
2:55 AM 65.8 °F 59.0 °F 79% 30.07 in 10.0 mi ESE 3.5 mph - N/A   Scattered Clouds
3:15 AM 64.8 °F 58.3 °F 79% 30.07 in 10.0 mi ESE 3.5 mph - N/A   Mostly Cloudy
3:35 AM 64.0 °F 58.1 °F 81% 30.06 in 10.0 mi ESE 3.5 mph - N/A   Scattered Clouds
3:55 AM 63.5 °F 58.8 °F 85% 30.06 in 10.0 mi ESE 3.5 mph - N/A   Clear
4:15 AM 63.5 °F 58.8 °F 85% 30.07 in 10.0 mi East 4.6 mph - N/A   Clear
4:35 AM 63.5 °F 59.0 °F 85% 30.06 in 10.0 mi ESE 3.5 mph - N/A   Clear
4:55 AM 63.5 °F 59.4 °F 86% 30.07 in 10.0 mi Calm Calm - N/A   Clear
5:15 AM 63.5 °F 60.1 °F 89% 30.06 in 10.0 mi ESE 3.5 mph - N/A   Clear
5:35 AM 62.4 °F 60.3 °F 93% 30.07 in 10.0 mi East 3.5 mph - N/A   Clear
5:55 AM 62.1 °F 61.7 °F 99% 30.07 in 10.0 mi East 3.5 mph - N/A   Clear
6:15 AM 61.9 °F 61.9 °F 100% 30.07 in 10.0 mi East 5.8 mph - N/A   Clear
6:35 AM 61.3 °F 61.5 °F 100% 30.07 in 10.0 mi East 4.6 mph - N/A   Scattered Clouds
6:55 AM 61.9 °F 61.9 °F 100% 30.08 in 10.0 mi Calm Calm - N/A   Scattered Clouds
7:15 AM 61.9 °F 61.9 °F 100% 30.09 in 10.0 mi Calm Calm - N/A   Scattered Clouds
7:35 AM 61.9 °F 62.1 °F 100% 30.10 in 10.0 mi Calm Calm - N/A   Scattered Clouds
7:55 AM 62.6 °F 62.4 °F 99% 30.11 in 10.0 mi Calm Calm - N/A   Scattered Clouds
8:15 AM 63.5 °F 61.7 °F 94% 30.12 in 10.0 mi ESE 3.5 mph - N/A   Clear
8:35 AM 64.8 °F 61.2 °F 88% 30.12 in 10.0 mi East 3.5 mph - N/A   Clear
8:55 AM 65.8 °F 60.4 °F 83% 30.12 in 10.0 mi East 3.5 mph - N/A   Clear
9:15 AM 67.8 °F 60.4 °F 77% 30.12 in 10.0 mi ESE 3.5 mph - N/A   Clear
9:35 AM 68.4 °F 60.1 °F 75% 30.12 in 10.0 mi ESE 3.5 mph - N/A   Clear
9:55 AM 70.3 °F 60.8 °F 72% 30.12 in 10.0 mi East 4.6 mph - N/A   Clear
10:15 AM 70.9 °F 60.3 °F 69% 30.12 in 10.0 mi East 4.6 mph - N/A   Clear
10:35 AM 71.2 °F 58.1 °F 63% 30.12 in 10.0 mi ESE 5.8 mph - N/A   Clear
10:55 AM 72.3 °F 57.0 °F 59% 30.13 in 10.0 mi SE 5.8 mph - N/A   Clear
11:15 AM 72.9 °F 57.6 °F 59% 30.13 in 10.0 mi SE 4.6 mph - N/A   Clear
11:35 AM 75.6 °F 59.2 °F 57% 30.13 in 10.0 mi ESE 4.6 mph - N/A   Clear
11:55 AM 76.1 °F 58.8 °F 55% 30.13 in 10.0 mi NE 4.6 mph - N/A   Clear
12:15 PM 76.1 °F 57.9 °F 53% 30.13 in 10.0 mi SE 3.5 mph - N/A   Clear
12:35 PM 76.1 °F 58.1 °F 54% 30.12 in 10.0 mi ESE 5.8 mph - N/A   Scattered Clouds
12:55 PM 76.1 °F 58.5 °F 54% 30.12 in 10.0 mi East 5.8 mph - N/A   Scattered Clouds
1:15 PM 76.1 °F 57.9 °F 53% 30.11 in 10.0 mi ENE 3.5 mph - N/A   Clear
1:35 PM 76.3 °F 57.6 °F 52% 30.11 in 10.0 mi ESE 3.5 mph - N/A   Scattered Clouds
1:55 PM 76.1 °F 55.9 °F 50% 30.11 in 10.0 mi SSE 4.6 mph - N/A   Clear
2:15 PM 77.2 °F 56.5 °F 49% 30.11 in 10.0 mi East 4.6 mph - N/A   Clear
2:35 PM 77.2 °F 57.2 °F 50% 30.11 in 10.0 mi ENE 6.9 mph - N/A   Scattered Clouds
2:55 PM 76.3 °F 56.8 °F 51% 30.11 in 10.0 mi ENE 5.8 mph - N/A   Mostly Cloudy
3:15 PM 77.0 °F 57.6 °F 51% 30.10 in 10.0 mi East 8.1 mph - N/A   Scattered Clouds
3:35 PM 78.4 °F 57.9 °F 49% 30.10 in 10.0 mi East 8.1 mph - N/A   Scattered Clouds
3:55 PM 78.3 °F 59.4 °F 52% 30.10 in 10.0 mi ENE 9.2 mph - N/A   Mostly Cloudy
4:15 PM 77.0 °F 58.1 °F 52% 30.10 in 10.0 mi ENE 6.9 mph - N/A   Scattered Clouds
4:35 PM 77.5 °F 59.0 °F 53% 30.10 in 10.0 mi East 9.2 mph - N/A   Scattered Clouds
4:55 PM 76.5 °F 58.5 °F 54% 30.11 in 10.0 mi East 5.8 mph - N/A   Scattered Clouds
5:15 PM 77.0 °F 58.8 °F 53% 30.10 in 10.0 mi East 6.9 mph - N/A   Mostly Cloudy
5:35 PM 76.1 °F 58.8 °F 55% 30.10 in 10.0 mi East 8.1 mph - N/A   Scattered Clouds
5:55 PM 76.1 °F 58.3 °F 54% 30.10 in 10.0 mi ENE 9.2 mph - N/A   Clear
6:15 PM 76.1 °F 58.5 °F 54% 30.11 in 10.0 mi East 8.1 mph - N/A   Scattered Clouds
6:35 PM 76.1 °F 59.5 °F 56% 30.11 in 10.0 mi ENE 6.9 mph - N/A   Scattered Clouds
6:55 PM 76.1 °F 60.6 °F 59% 30.11 in 10.0 mi East 9.2 mph - N/A   Clear
7:15 PM 76.1 °F 60.8 °F 59% 30.11 in 10.0 mi ENE 6.9 mph - N/A   Clear
7:35 PM 74.7 °F 60.6 °F 61% 30.12 in 10.0 mi East 6.9 mph - N/A   Clear
7:55 PM 72.1 °F 59.9 °F 65% 30.12 in 10.0 mi ENE 5.8 mph - N/A   Clear
8:15 PM 70.9 °F 59.4 °F 67% 30.12 in 10.0 mi East 5.8 mph - N/A   Clear
8:35 PM 70.9 °F 60.1 °F 69% 30.13 in 10.0 mi East 6.9 mph - N/A   Clear
8:55 PM 70.9 °F 61.2 °F 71% 30.14 in 10.0 mi East 3.5 mph - N/A   Clear
9:15 PM 70.9 °F 62.8 °F 75% 30.14 in 10.0 mi East 5.8 mph - N/A   Clear
9:35 PM 69.3 °F 62.6 °F 79% 30.14 in 10.0 mi East 3.5 mph - N/A   Clear
9:55 PM 68.4 °F 62.2 °F 81% 30.15 in 10.0 mi East 4.6 mph - N/A   Clear
10:15 PM 68.2 °F 61.9 °F 80% 30.15 in 10.0 mi Calm Calm - N/A   Clear
10:35 PM 66.4 °F 61.0 °F 83% 30.15 in 10.0 mi Calm Calm - N/A   Clear
10:55 PM 65.7 °F 61.5 °F 86% 30.15 in 10.0 mi Calm Calm - N/A   Clear
11:15 PM 63.9 °F 63.1 °F 97% 30.15 in 10.0 mi Calm Calm - N/A   Clear
11:35 PM - - N/A% 30.15 in 10.0 mi Calm Calm - N/A   Clear
11:55 PM 62.8 °F 63.0 °F 100% 30.16 in 10.0 mi Calm Calm - N/A   Clear